| time (UTC) | temp C | wind direction | speed KPH | gust KPH | rain 1hr cm | rain 24hr cm | rain mn cm | humidity % | barometer mb |
| 20260506220043 | 0 | 162 | 0.0 | 0.0 | 0.00 | 0.00 | 0.00 | 91 | 1012.7 |
| 20260506215535 | 0 | 0 | 0.0 | 4.8 | 0.00 | 0.00 | 0.00 | 90 | 1012.7 |
| 20260506215030 | 0 | 0 | 0.0 | 4.8 | 0.00 | 0.00 | 0.00 | 90 | 1012.7 |
| 20260506214541 | 0 | 148 | 0.0 | 4.8 | 0.00 | 0.00 | 0.00 | 90 | 1012.6 |
| 20260506214033 | 1 | 0 | 0.0 | 4.8 | 0.00 | 0.00 | 0.00 | 90 | 1012.7 |
| 20260506213531 | 1 | 151 | 0.0 | 4.8 | 0.00 | 0.00 | 0.00 | 90 | 1012.7 |
| 20260506213040 | 1 | 0 | 0.0 | 4.8 | 0.00 | 0.00 | 0.00 | 90 | 1012.6 |
| 20260506212530 | 1 | 157 | 1.6 | 4.8 | 0.00 | 0.00 | 0.00 | 90 | 1012.6 |
| 20260506212032 | 1 | 113 | 1.6 | 4.8 | 0.00 | 0.00 | 0.00 | 90 | 1012.5 |
| 20260506210532 | 1 | 147 | 1.6 | 8.0 | 0.00 | 0.00 | 0.00 | 90 | 1012.4 |
| 20260506210054 | 1 | 146 | 1.6 | 4.8 | 0.00 | 0.00 | 0.00 | 89 | 1012.4 |
| 20260506205531 | 1 | 153 | 1.6 | 4.8 | 0.00 | 0.00 | 0.00 | 89 | 1012.2 |
| 20260506205030 | 1 | 192 | 1.6 | 4.8 | 0.00 | 0.00 | 0.00 | 89 | 1012.2 |
| 20260506204547 | 1 | 221 | 0.0 | 6.4 | 0.00 | 0.00 | 0.00 | 88 | 1012.2 |
| 20260506204030 | 1 | 285 | 0.0 | 6.4 | 0.00 | 0.00 | 0.00 | 88 | 1012.3 |
| 20260506203530 | 1 | 177 | 3.2 | 6.4 | 0.00 | 0.00 | 0.00 | 88 | 1012.3 |
| 20260506203043 | 1 | 203 | 1.6 | 6.4 | 0.00 | 0.00 | 0.00 | 88 | 1012.2 |
| 20260506202534 | 1 | 201 | 1.6 | 8.0 | 0.00 | 0.00 | 0.00 | 88 | 1012.3 |
| 20260506202032 | 1 | 182 | 1.6 | 8.0 | 0.00 | 0.00 | 0.00 | 88 | 1012.3 |
| 20260506201541 | 1 | 146 | 1.6 | 8.0 | 0.00 | 0.00 | 0.00 | 87 | 1012.3 |
| 20260506201032 | 1 | 198 | 1.6 | 6.4 | 0.00 | 0.00 | 0.00 | 87 | 1012.3 |
| 20260506200530 | 1 | 146 | 1.6 | 6.4 | 0.00 | 0.00 | 0.00 | 87 | 1012.3 |
| 20260506200040 | 1 | 134 | 0.0 | 4.8 | 0.00 | 0.00 | 0.00 | 87 | 1012.3 |
| 20260506195530 | 1 | 212 | 1.6 | 4.8 | 0.00 | 0.00 | 0.00 | 87 | 1012.3 |
| 20260506195030 | 1 | 143 | 0.0 | 4.8 | 0.00 | 0.00 | 0.00 | 86 | 1012.2 |
| 20260506194545 | 2 | 0 | 0.0 | 6.4 | 0.00 | 0.00 | 0.00 | 86 | 1012.1 |
| 20260506194031 | 2 | 0 | 1.6 | 8.0 | 0.00 | 0.00 | 0.00 | 85 | 1012.2 |
| 20260506193531 | 2 | 165 | 1.6 | 8.0 | 0.00 | 0.00 | 0.00 | 85 | 1012.3 |
| 20260506193048 | 2 | 159 | 0.0 | 4.8 | 0.00 | 0.00 | 0.00 | 85 | 1012.2 |
| 20260506192533 | 2 | 163 | 1.6 | 6.4 | 0.00 | 0.00 | 0.00 | 84 | 1012.2 |
| 20260506192028 | 2 | 0 | 1.6 | 6.4 | 0.00 | 0.00 | 0.00 | 84 | 1012.3 |
| 20260506191542 | 2 | 161 | 3.2 | 6.4 | 0.00 | 0.00 | 0.00 | 84 | 1012.1 |
| 20260506191032 | 2 | 207 | 1.6 | 4.8 | 0.00 | 0.00 | 0.00 | 83 | 1012.2 |
| 20260506190532 | 2 | 152 | 1.6 | 4.8 | 0.00 | 0.00 | 0.00 | 82 | 1012.2 |
| 20260506190040 | 2 | 218 | 1.6 | 4.8 | 0.00 | 0.00 | 0.00 | 81 | 1012.1 |
| 20260506185531 | 3 | 117 | 1.6 | 4.8 | 0.00 | 0.00 | 0.00 | 81 | 1012.1 |
| 20260506185031 | 3 | 160 | 0.0 | 4.8 | 0.00 | 0.00 | 0.00 | 80 | 1011.9 |
| 20260506184549 | 3 | 160 | 0.0 | 6.4 | 0.00 | 0.00 | 0.00 | 80 | 1011.9 |
| 20260506184033 | 3 | 146 | 1.6 | 8.0 | 0.00 | 0.00 | 0.00 | 80 | 1011.8 |
| 20260506183530 | 3 | 183 | 1.6 | 8.0 | 0.00 | 0.00 | 0.00 | 80 | 1011.8 |
| 20260506183045 | 3 | 119 | 3.2 | 8.0 | 0.00 | 0.00 | 0.00 | 80 | 1011.8 |
| 20260506182530 | 3 | 64 | 0.0 | 4.8 | 0.00 | 0.00 | 0.00 | 79 | 1011.8 |
| 20260506182030 | 3 | 221 | 0.0 | 4.8 | 0.00 | 0.00 | 0.00 | 79 | 1011.7 |
| 20260506181549 | 3 | 169 | 0.0 | 4.8 | 0.00 | 0.00 | 0.00 | 79 | 1011.5 |
| 20260506181033 | 3 | 0 | 0.0 | 4.8 | 0.00 | 0.00 | 0.00 | 80 | 1011.5 |
| 20260506180533 | 3 | 0 | 0.0 | 11.3 | 0.00 | 0.00 | 0.00 | 80 | 1011.5 |
| 20260506180040 | 3 | 153 | 3.2 | 14.5 | 0.00 | 0.00 | 0.00 | 80 | 1011.4 |
| 20260506175533 | 3 | 165 | 3.2 | 14.5 | 0.00 | 0.00 | 0.00 | 79 | 1011.4 |
| 20260506175031 | 4 | 228 | 3.2 | 14.5 | 0.00 | 0.00 | 0.00 | 76 | 1011.5 |
| 20260506174541 | 5 | 141 | 3.2 | 9.7 | 0.00 | 0.00 | 0.00 | 73 | 1011.5 |
| 20260506174031 | 5 | 166 | 1.6 | 8.0 | 0.00 | 0.00 | 0.00 | 64 | 1011.5 |
| 20260506173530 | 5 | 175 | 0.0 | 8.0 | 0.00 | 0.00 | 0.00 | 63 | 1011.3 |
| 20260506173046 | 5 | 111 | 3.2 | 8.0 | 0.00 | 0.00 | 0.00 | 63 | 1011.3 |
| 20260506172530 | 5 | 355 | 0.0 | 6.4 | 0.00 | 0.00 | 0.00 | 63 | 1011.2 |
| 20260506172030 | 5 | 127 | 1.6 | 6.4 | 0.00 | 0.00 | 0.00 | 63 | 1011.2 |
| 20260506171545 | 5 | 151 | 3.2 | 8.0 | 0.00 | 0.00 | 0.00 | 64 | 1011.1 |
| 20260506171030 | 5 | 84 | 1.6 | 8.0 | 0.00 | 0.00 | 0.00 | 67 | 1011.0 |
| 20260506170531 | 6 | 229 | 1.6 | 4.8 | 0.00 | 0.00 | 0.00 | 67 | 1010.8 |
| 20260506170052 | 5 | 0 | 0.0 | 4.8 | 0.00 | 0.00 | 0.00 | 69 | 1010.8 |
| 20260506165532 | 5 | 155 | 1.6 | 4.8 | 0.00 | 0.03 | 0.00 | 68 | 1010.8 |
| 20260506165030 | 5 | 0 | 1.6 | 17.7 | 0.00 | 0.03 | 0.00 | 68 | 1010.8 |
| 20260506164554 | 5 | 134 | 4.8 | 17.7 | 0.00 | 0.03 | 0.00 | 67 | 1010.8 |
| 20260506164031 | 5 | 162 | 3.2 | 14.5 | 0.00 | 0.03 | 0.00 | 67 | 1010.8 |
| 20260506163530 | 5 | 97 | 4.8 | 14.5 | 0.00 | 0.03 | 0.00 | 66 | 1010.9 |
| 20260506163045 | 5 | 49 | 3.2 | 11.3 | 0.00 | 0.03 | 0.00 | 67 | 1011.0 |
| 20260506162530 | 5 | 108 | 3.2 | 8.0 | 0.00 | 0.03 | 0.00 | 66 | 1011.0 |
| 20260506162031 | 5 | 302 | 1.6 | 11.3 | 0.00 | 0.03 | 0.00 | 66 | 1010.9 |
| 20260506161540 | 5 | 0 | 1.6 | 11.3 | 0.00 | 0.03 | 0.00 | 66 | 1011.0 |
| 20260506161029 | 5 | 0 | 1.6 | 14.5 | 0.00 | 0.03 | 0.00 | 66 | 1011.0 |
| 20260506160531 | 6 | 41 | 3.2 | 14.5 | 0.00 | 0.03 | 0.00 | 64 | 1011.0 |
| 20260506160055 | 6 | 307 | 3.2 | 9.7 | 0.00 | 0.03 | 0.00 | 64 | 1011.0 |
| 20260506155532 | 6 | 345 | 1.6 | 9.7 | 0.00 | 0.03 | 0.00 | 65 | 1011.0 |
| 20260506155030 | 6 | 288 | 1.6 | 12.9 | 0.00 | 0.03 | 0.00 | 64 | 1010.9 |
| 20260506154544 | 6 | 155 | 1.6 | 12.9 | 0.00 | 0.03 | 0.00 | 63 | 1011.0 |
| 20260506154030 | 6 | 229 | 3.2 | 9.7 | 0.00 | 0.03 | 0.00 | 62 | 1010.9 |
| 20260506153530 | 7 | 120 | 3.2 | 9.7 | 0.00 | 0.03 | 0.00 | 62 | 1011.0 |
| 20260506153043 | 7 | 312 | 3.2 | 8.0 | 0.00 | 0.03 | 0.00 | 60 | 1010.9 |
| 20260506152530 | 7 | 303 | 1.6 | 11.3 | 0.00 | 0.03 | 0.00 | 59 | 1010.9 |
| 20260506152029 | 7 | 5 | 1.6 | 11.3 | 0.00 | 0.03 | 0.00 | 59 | 1011.0 |
| 20260506151544 | 7 | 213 | 3.2 | 11.3 | 0.00 | 0.03 | 0.00 | 59 | 1010.9 |
| 20260506151032 | 7 | 77 | 1.6 | 8.0 | 0.00 | 0.03 | 0.00 | 57 | 1010.9 |
| 20260506150530 | 7 | 0 | 0.0 | 6.4 | 0.00 | 0.03 | 0.00 | 59 | 1010.8 |
| 20260506150049 | 7 | 323 | 1.6 | 12.9 | 0.00 | 0.03 | 0.00 | 59 | 1011.0 |
| 20260506145530 | 7 | 0 | 1.6 | 12.9 | 0.00 | 0.05 | 0.00 | 61 | 1011.0 |
| 20260506145030 | 7 | 314 | 1.6 | 8.0 | 0.00 | 0.05 | 0.00 | 61 | 1011.0 |
| 20260506144542 | 7 | 44 | 1.6 | 8.0 | 0.00 | 0.05 | 0.00 | 61 | 1010.9 |
| 20260506144028 | 7 | 128 | 1.6 | 8.0 | 0.00 | 0.05 | 0.00 | 61 | 1011.0 |
| 20260506143531 | 7 | 337 | 3.2 | 8.0 | 0.00 | 0.05 | 0.00 | 61 | 1010.9 |
| 20260506143042 | 7 | 132 | 1.6 | 8.0 | 0.00 | 0.05 | 0.00 | 65 | 1010.9 |
| 20260506142530 | 7 | 212 | 3.2 | 8.0 | 0.00 | 0.05 | 0.00 | 65 | 1011.0 |
| 20260506142030 | 7 | 96 | 1.6 | 9.7 | 0.00 | 0.05 | 0.00 | 68 | 1010.9 |
| 20260506141544 | 6 | 336 | 1.6 | 9.7 | 0.00 | 0.05 | 0.00 | 66 | 1010.9 |
| 20260506141030 | 6 | 0 | 3.2 | 8.0 | 0.00 | 0.05 | 0.00 | 67 | 1011.0 |
| 20260506140533 | 6 | 30 | 1.6 | 8.0 | 0.00 | 0.05 | 0.00 | 70 | 1011.1 |
| 20260506140041 | 5 | 70 | 0.0 | 4.8 | 0.00 | 0.05 | 0.00 | 75 | 1011.2 |
| 20260506135529 | 5 | 53 | 0.0 | 4.8 | 0.00 | 0.05 | 0.00 | 78 | 1011.1 |
| 20260506135033 | 5 | 75 | 1.6 | 4.8 | 0.00 | 0.05 | 0.00 | 78 | 1011.1 |
| 20260506134545 | 5 | 0 | 1.6 | 9.7 | 0.00 | 0.05 | 0.00 | 77 | 1011.2 |
| 20260506134030 | 5 | 174 | 0.0 | 9.7 | 0.00 | 0.05 | 0.00 | 75 | 1011.3 |
| 20260506133530 | 5 | 191 | 1.6 | 8.0 | 0.00 | 0.05 | 0.00 | 73 | 1011.2 |
| 20260506133056 | 6 | 120 | 1.6 | 8.0 | 0.00 | 0.05 | 0.00 | 71 | 1011.2 |
| 20260506132532 | 6 | 192 | 1.6 | 4.8 | 0.00 | 0.05 | 0.00 | 70 | 1011.0 |
| 20260506132030 | 5 | 63 | 0.0 | 6.4 | 0.00 | 0.05 | 0.00 | 69 | 1011.0 |
| 20260506131542 | 6 | 195 | 1.6 | 6.4 | 0.00 | 0.05 | 0.00 | 69 | 1010.9 |
| 20260506131030 | 6 | 236 | 1.6 | 6.4 | 0.00 | 0.05 | 0.00 | 68 | 1010.9 |
| 20260506130533 | 6 | 45 | 1.6 | 8.0 | 0.00 | 0.05 | 0.00 | 68 | 1010.9 |
| 20260506130041 | 6 | 55 | 1.6 | 8.0 | 0.00 | 0.05 | 0.00 | 69 | 1010.9 |
| 20260506125531 | 6 | 98 | 3.2 | 6.4 | 0.00 | 0.05 | 0.00 | 70 | 1011.0 |
| 20260506125030 | 6 | 32 | 1.6 | 6.4 | 0.00 | 0.05 | 0.00 | 72 | 1010.9 |
| 20260506124541 | 6 | 131 | 0.0 | 4.8 | 0.00 | 0.05 | 0.00 | 72 | 1010.8 |
| 20260506124029 | 6 | 0 | 0.0 | 8.0 | 0.00 | 0.05 | 0.00 | 70 | 1010.9 |
| 20260506123531 | 6 | 148 | 1.6 | 8.0 | 0.00 | 0.05 | 0.00 | 70 | 1010.8 |
| 20260506123044 | 6 | 330 | 1.6 | 9.7 | 0.00 | 0.05 | 0.00 | 68 | 1010.9 |
| 20260506122530 | 6 | 182 | 1.6 | 9.7 | 0.00 | 0.05 | 0.00 | 66 | 1010.8 |
| 20260506122030 | 6 | 79 | 1.6 | 9.7 | 0.00 | 0.05 | 0.00 | 63 | 1010.8 |
| 20260506121553 | 6 | 311 | 1.6 | 4.8 | 0.00 | 0.05 | 0.00 | 58 | 1010.6 |
| 20260506121030 | 6 | 223 | 1.6 | 12.9 | 0.00 | 0.05 | 0.00 | 57 | 1010.7 |
| 20260506120530 | 6 | 23 | 3.2 | 12.9 | 0.00 | 0.05 | 0.00 | 56 | 1010.7 |
| 20260506120056 | 7 | 15 | 0.0 | 12.9 | 0.00 | 0.05 | 0.00 | 58 | 1010.7 |
| 20260506115531 | 7 | 75 | 4.8 | 12.9 | 0.00 | 0.08 | 0.00 | 56 | 1010.6 |
| 20260506115030 | 7 | 314 | 3.2 | 11.3 | 0.00 | 0.08 | 0.00 | 57 | 1010.6 |
| 20260506114547 | 6 | 331 | 4.8 | 11.3 | 0.00 | 0.08 | 0.00 | 56 | 1010.5 |
| 20260506114029 | 7 | 114 | 1.6 | 9.7 | 0.00 | 0.08 | 0.00 | 55 | 1010.5 |
| 20260506113529 | 7 | 53 | 3.2 | 9.7 | 0.00 | 0.08 | 0.00 | 55 | 1010.4 |
| 20260506113041 | 7 | 46 | 3.2 | 9.7 | 0.00 | 0.08 | 0.00 | 55 | 1010.4 |
| 20260506112530 | 7 | 118 | 1.6 | 12.9 | 0.00 | 0.08 | 0.00 | 54 | 1010.3 |
| 20260506112032 | 8 | 65 | 3.2 | 12.9 | 0.00 | 0.08 | 0.00 | 53 | 1010.3 |
| 20260506111547 | 7 | 131 | 6.4 | 12.9 | 0.00 | 0.08 | 0.00 | 55 | 1010.4 |
| 20260506111032 | 7 | 207 | 1.6 | 8.0 | 0.00 | 0.08 | 0.00 | 56 | 1010.3 |
| 20260506110532 | 6 | 176 | 1.6 | 14.5 | 0.00 | 0.08 | 0.00 | 57 | 1010.2 |
| 20260506110057 | 6 | 83 | 4.8 | 14.5 | 0.00 | 0.08 | 0.00 | 56 | 1010.3 |
| 20260506105534 | 6 | 0 | 3.2 | 12.9 | 0.00 | 0.08 | 0.00 | 53 | 1010.3 |
| 20260506105031 | 6 | 92 | 3.2 | 14.5 | 0.00 | 0.08 | 0.00 | 54 | 1010.3 |
| 20260506104557 | 6 | 68 | 4.8 | 14.5 | 0.00 | 0.08 | 0.00 | 56 | 1010.4 |
| 20260506104032 | 6 | 96 | 6.4 | 14.5 | 0.00 | 0.08 | 0.00 | 54 | 1010.3 |
| 20260506103530 | 6 | 153 | 1.6 | 12.9 | 0.00 | 0.08 | 0.00 | 54 | 1010.4 |
| 20260506103046 | 6 | 137 | 3.2 | 12.9 | 0.00 | 0.08 | 0.00 | 53 | 1010.4 |
| 20260506102533 | 6 | 155 | 3.2 | 16.1 | 0.00 | 0.08 | 0.00 | 50 | 1010.3 |
| 20260506102034 | 7 | 343 | 3.2 | 16.1 | 0.00 | 0.08 | 0.00 | 51 | 1010.2 |
| 20260506101541 | 6 | 151 | 3.2 | 12.9 | 0.00 | 0.08 | 0.00 | 51 | 1010.3 |
| 20260506101029 | 7 | 106 | 3.2 | 12.9 | 0.00 | 0.08 | 0.00 | 50 | 1010.2 |
| 20260506100533 | 6 | 135 | 4.8 | 12.9 | 0.00 | 0.08 | 0.00 | 53 | 1010.3 |
| 20260506100048 | 6 | 344 | 4.8 | 11.3 | 0.00 | 0.08 | 0.00 | 53 | 1010.4 |
| 20260506095530 | 6 | 125 | 3.2 | 11.3 | 0.00 | 0.10 | 0.00 | 53 | 1010.2 |
| 20260506095030 | 6 | 128 | 3.2 | 11.3 | 0.00 | 0.10 | 0.00 | 53 | 1010.2 |
| 20260506094543 | 6 | 2 | 1.6 | 11.3 | 0.00 | 0.10 | 0.00 | 55 | 1010.3 |
| 20260506094029 | 6 | 133 | 1.6 | 11.3 | 0.00 | 0.10 | 0.00 | 54 | 1010.2 |
| 20260506093533 | 6 | 159 | 3.2 | 8.0 | 0.00 | 0.10 | 0.00 | 54 | 1010.3 |
| 20260506093044 | 5 | 0 | 0.0 | 11.3 | 0.00 | 0.10 | 0.00 | 55 | 1010.3 |
| 20260506092530 | 5 | 137 | 1.6 | 11.3 | 0.00 | 0.10 | 0.00 | 54 | 1010.2 |
| 20260506092030 | 5 | 131 | 3.2 | 11.3 | 0.00 | 0.10 | 0.00 | 54 | 1010.1 |
| 20260506091541 | 6 | 78 | 0.0 | 17.7 | 0.00 | 0.10 | 0.00 | 56 | 1010.1 |
| 20260506091029 | 6 | 131 | 4.8 | 17.7 | 0.00 | 0.10 | 0.00 | 55 | 1010.2 |
| 20260506090532 | 6 | 148 | 3.2 | 16.1 | 0.00 | 0.10 | 0.00 | 54 | 1010.2 |
| 20260506090042 | 6 | 89 | 6.4 | 16.1 | 0.00 | 0.10 | 0.00 | 54 | 1010.3 |
| 20260506085532 | 6 | 140 | 3.2 | 11.3 | 0.00 | 0.13 | 0.00 | 55 | 1010.2 |
| 20260506085030 | 6 | 138 | 3.2 | 11.3 | 0.00 | 0.13 | 0.00 | 56 | 1010.2 |
| 20260506084612 | 6 | 105 | 3.2 | 9.7 | 0.00 | 0.13 | 0.00 | 59 | 1010.2 |
| 20260506084030 | 5 | 176 | 3.2 | 9.7 | 0.00 | 0.13 | 0.00 | 59 | 1010.2 |
| 20260506083530 | 5 | 158 | 1.6 | 14.5 | 0.00 | 0.13 | 0.00 | 60 | 1010.2 |
| 20260506083045 | 5 | 80 | 4.8 | 16.1 | 0.00 | 0.13 | 0.00 | 60 | 1010.2 |
| 20260506082530 | 5 | 229 | 4.8 | 19.3 | 0.00 | 0.13 | 0.00 | 61 | 1010.2 |
| 20260506082030 | 4 | 181 | 6.4 | 19.3 | 0.00 | 0.13 | 0.00 | 60 | 1010.2 |
| 20260506081554 | 5 | 138 | 4.8 | 11.3 | 0.00 | 0.13 | 0.00 | 59 | 1010.3 |
| 20260506081034 | 5 | 94 | 3.2 | 9.7 | 0.00 | 0.13 | 0.00 | 60 | 1010.2 |
| 20260506080530 | 4 | 113 | 1.6 | 8.0 | 0.00 | 0.13 | 0.00 | 61 | 1010.2 |
| 20260506073529 | 4 | 134 | 0.0 | 6.4 | 0.00 | 0.28 | 0.00 | 67 | 1010.2 |
| 20260506073044 | 3 | 141 | 1.6 | 6.4 | 0.00 | 0.28 | 0.00 | 65 | 1010.2 |
| 20260506072529 | 3 | 150 | 3.2 | 6.4 | 0.00 | 0.28 | 0.00 | 66 | 1010.2 |
| 20260506072031 | 2 | 0 | 1.6 | 4.8 | 0.00 | 0.28 | 0.00 | 68 | 1010.2 |
| 20260506071548 | 2 | 113 | 1.6 | 6.4 | 0.00 | 0.28 | 0.00 | 67 | 1010.2 |
| 20260506071031 | 2 | 158 | 1.6 | 6.4 | 0.00 | 0.28 | 0.00 | 68 | 1010.2 |
| 20260506070530 | 2 | 141 | 3.2 | 6.4 | 0.00 | 0.28 | 0.00 | 69 | 1010.2 |
| 20260506062030 | 2 | 119 | 3.2 | 9.7 | 0.00 | 0.33 | 0.00 | 71 | 1010.0 |
| 20260506061548 | 2 | 144 | 3.2 | 12.9 | 0.00 | 0.33 | 0.00 | 71 | 1010.0 |
| 20260506061030 | 2 | 103 | 4.8 | 14.5 | 0.00 | 0.33 | 0.00 | 72 | 1010.0 |
| 20260506060531 | 2 | 144 | 6.4 | 14.5 | 0.00 | 0.33 | 0.00 | 72 | 1009.9 |
| 20260506051029 | 0 | 170 | 1.6 | 9.7 | 0.00 | 0.33 | 0.00 | 82 | 1009.9 |
| 20260506050529 | 0 | 199 | 3.2 | 8.0 | 0.00 | 0.33 | 0.00 | 82 | 1009.8 |
| 20260506045029 | 0 | 150 | 1.6 | 9.7 | 0.00 | 0.33 | 0.00 | 83 | 1009.8 |
| 20260506044544 | 0 | 110 | 3.2 | 12.9 | 0.00 | 0.33 | 0.00 | 82 | 1009.8 |
| 20260506044029 | 0 | 146 | 3.2 | 12.9 | 0.00 | 0.33 | 0.00 | 82 | 1009.8 |
| 20260506043534 | 0 | 148 | 1.6 | 9.7 | 0.00 | 0.33 | 0.00 | 82 | 1009.8 |
| 20260506043045 | 0 | 139 | 3.2 | 11.3 | 0.00 | 0.33 | 0.00 | 82 | 1009.7 |
| 20260506042530 | 0 | 162 | 3.2 | 11.3 | 0.00 | 0.33 | 0.00 | 81 | 1009.7 |
| 20260506042030 | 0 | 0 | 3.2 | 11.3 | 0.00 | 0.33 | 0.00 | 81 | 1009.8 |
| 20260506041545 | 0 | 154 | 3.2 | 11.3 | 0.00 | 0.33 | 0.00 | 82 | 1009.8 |
| 20260506041029 | 0 | 134 | 3.2 | 9.7 | 0.00 | 0.33 | 0.00 | 82 | 1009.8 |
| 20260506040533 | 0 | 148 | 1.6 | 9.7 | 0.00 | 0.33 | 0.00 | 82 | 1009.8 |
| 20260506040042 | 0 | 156 | 1.6 | 9.7 | 0.00 | 0.33 | 0.00 | 81 | 1009.7 |
| 20260506035530 | 0 | 132 | 3.2 | 11.3 | 0.00 | 0.33 | 0.00 | 81 | 1009.8 |
| 20260506035029 | 0 | 147 | 1.6 | 11.3 | 0.00 | 0.33 | 0.00 | 82 | 1009.7 |
| 20260506034548 | 0 | 207 | 1.6 | 11.3 | 0.00 | 0.33 | 0.00 | 83 | 1009.7 |
| 20260506034030 | 0 | 172 | 1.6 | 6.4 | 0.00 | 0.33 | 0.00 | 84 | 1009.7 |
| 20260506033533 | 0 | 136 | 0.0 | 6.4 | 0.00 | 0.33 | 0.00 | 84 | 1009.6 |
| 20260506033043 | 0 | 134 | 1.6 | 6.4 | 0.00 | 0.33 | 0.00 | 85 | 1009.6 |
| 20260506032530 | -1 | 137 | 0.0 | 6.4 | 0.00 | 0.33 | 0.00 | 85 | 1009.6 |
| 20260506032030 | 0 | 149 | 1.6 | 8.0 | 0.00 | 0.33 | 0.00 | 85 | 1009.5 |
| 20260506031543 | 0 | 177 | 1.6 | 8.0 | 0.00 | 0.33 | 0.00 | 85 | 1009.6 |
| 20260506031032 | 0 | 0 | 1.6 | 8.0 | 0.00 | 0.33 | 0.00 | 85 | 1009.6 |
| 20260506030535 | 0 | 137 | 3.2 | 8.0 | 0.00 | 0.33 | 0.00 | 85 | 1009.5 |
| 20260506030043 | -1 | 255 | 1.6 | 8.0 | 0.00 | 0.33 | 0.00 | 85 | 1009.7 |
| 20260506025531 | -1 | 143 | 0.0 | 4.8 | 0.00 | 0.33 | 0.00 | 85 | 1009.6 |
| 20260506025031 | -1 | 243 | 0.0 | 4.8 | 0.00 | 0.33 | 0.00 | 85 | 1009.7 |
| 20260506024541 | -1 | 127 | 0.0 | 12.9 | 0.00 | 0.33 | 0.00 | 85 | 1009.6 |
| 20260506024029 | 0 | 159 | 0.0 | 12.9 | 0.00 | 0.33 | 0.00 | 85 | 1009.6 |
| 20260506023531 | 0 | 155 | 1.6 | 12.9 | 0.00 | 0.33 | 0.00 | 85 | 1009.6 |
| 20260506023059 | 0 | 0 | 1.6 | 6.4 | 0.00 | 0.33 | 0.00 | 85 | 1009.6 |
| 20260506022530 | 0 | 115 | 0.0 | 6.4 | 0.00 | 0.33 | 0.00 | 85 | 1009.6 |
| 20260506022030 | -1 | 0 | 0.0 | 6.4 | 0.00 | 0.33 | 0.00 | 85 | 1009.6 |
| 20260506021606 | -1 | 316 | 0.0 | 9.7 | 0.00 | 0.33 | 0.00 | 86 | 1009.7 |
| 20260506021035 | -1 | 0 | 1.6 | 9.7 | 0.00 | 0.33 | 0.00 | 86 | 1009.5 |
| 20260506020529 | -1 | 0 | 1.6 | 4.8 | 0.00 | 0.33 | 0.00 | 86 | 1009.6 |
| 20260506020039 | -1 | 288 | 1.6 | 4.8 | 0.00 | 0.33 | 0.00 | 86 | 1009.7 |
| 20260506015532 | -1 | 117 | 0.0 | 6.4 | 0.00 | 0.33 | 0.00 | 86 | 1009.6 |
| 20260506015036 | -1 | 143 | 0.0 | 6.4 | 0.00 | 0.33 | 0.00 | 85 | 1009.6 |
| 20260506014541 | -1 | 0 | 0.0 | 4.8 | 0.00 | 0.33 | 0.00 | 85 | 1009.6 |
| 20260506014029 | -1 | 331 | 0.0 | 4.8 | 0.00 | 0.33 | 0.00 | 84 | 1009.6 |
| 20260506013531 | -1 | 141 | 1.6 | 6.4 | 0.00 | 0.33 | 0.00 | 84 | 1009.6 |
| 20260506013044 | 0 | 160 | 1.6 | 8.0 | 0.00 | 0.33 | 0.00 | 84 | 1009.6 |
| 20260506012531 | 0 | 169 | 1.6 | 8.0 | 0.00 | 0.33 | 0.00 | 84 | 1009.6 |
| 20260506012029 | 0 | 150 | 1.6 | 6.4 | 0.00 | 0.33 | 0.00 | 84 | 1009.5 |
| 20260506011555 | 0 | 185 | 1.6 | 9.7 | 0.00 | 0.33 | 0.00 | 84 | 1009.6 |
| 20260506011030 | 0 | 97 | 3.2 | 9.7 | 0.00 | 0.33 | 0.00 | 84 | 1009.5 |
| 20260506010532 | -1 | 87 | 1.6 | 9.7 | 0.00 | 0.33 | 0.00 | 84 | 1009.6 |
| 20260506010046 | -1 | 137 | 1.6 | 9.7 | 0.00 | 0.33 | 0.00 | 84 | 1009.5 |
| 20260506005531 | -1 | 143 | 1.6 | 6.4 | 0.00 | 0.33 | 0.00 | 85 | 1009.6 |
| 20260506005032 | -1 | 134 | 1.6 | 6.4 | 0.00 | 0.33 | 0.00 | 85 | 1009.5 |
| 20260506004547 | -1 | 148 | 1.6 | 6.4 | 0.00 | 0.33 | 0.00 | 85 | 1009.5 |
| 20260506004031 | -1 | 224 | 1.6 | 4.8 | 0.00 | 0.33 | 0.00 | 86 | 1009.5 |
| 20260506003532 | -1 | 160 | 0.0 | 3.2 | 0.00 | 0.33 | 0.00 | 86 | 1009.5 |
| 20260506003048 | -1 | 0 | 0.0 | 3.2 | 0.00 | 0.33 | 0.00 | 86 | 1009.5 |
| 20260506002532 | -1 | 0 | 1.6 | 6.4 | 0.00 | 0.33 | 0.00 | 86 | 1009.6 |
| 20260506002033 | -1 | 126 | 0.0 | 6.4 | 0.00 | 0.33 | 0.00 | 85 | 1009.7 |
| 20260506001549 | -1 | 0 | 0.0 | 6.4 | 0.00 | 0.33 | 0.00 | 85 | 1009.6 |
| 20260506001031 | -1 | 0 | 0.0 | 3.2 | 0.00 | 0.33 | 0.00 | 85 | 1009.6 |
| 20260506000532 | -1 | 125 | 1.6 | 4.8 | 0.00 | 0.33 | 0.00 | 85 | 1009.6 |
| 20260506000048 | -1 | 131 | 0.0 | 6.4 | 0.00 | 0.33 | 0.00 | 86 | 1009.5 |
| 20260505235530 | -1 | 144 | 0.0 | 6.4 | 0.00 | 0.33 | 0.00 | 86 | 1009.7 |
| 20260505235030 | 0 | 161 | 1.6 | 8.0 | 0.00 | 0.33 | 0.00 | 86 | 1009.6 |
| 20260505234543 | 0 | 159 | 0.0 | 8.0 | 0.00 | 0.33 | 0.00 | 86 | 1009.5 |
| 20260505234031 | -1 | 327 | 0.0 | 6.4 | 0.00 | 0.33 | 0.00 | 86 | 1009.5 |
| 20260505233531 | -1 | 282 | 0.0 | 6.4 | 0.00 | 0.33 | 0.00 | 86 | 1009.3 |
| 20260505233044 | -1 | 236 | 0.0 | 8.0 | 0.00 | 0.33 | 0.00 | 86 | 1009.3 |
| 20260505232532 | -1 | 150 | 0.0 | 8.0 | 0.00 | 0.33 | 0.00 | 86 | 1009.3 |
| 20260505232031 | -1 | 110 | 1.6 | 8.0 | 0.00 | 0.33 | 0.00 | 87 | 1009.4 |
| 20260505231603 | -1 | 165 | 0.0 | 11.3 | 0.00 | 0.33 | 0.00 | 86 | 1009.3 |
| 20260505231030 | -1 | 0 | 0.0 | 11.3 | 0.00 | 0.33 | 0.00 | 86 | 1009.3 |
| 20260505230530 | -1 | 162 | 0.0 | 4.8 | 0.00 | 0.33 | 0.00 | 85 | 1009.3 |
| 20260505230044 | -1 | 172 | 0.0 | 4.8 | 0.00 | 0.33 | 0.00 | 85 | 1009.3 |
| 20260505225531 | -1 | 114 | 0.0 | 4.8 | 0.00 | 0.33 | 0.00 | 85 | 1009.4 |
| 20260505225030 | 0 | 0 | 1.6 | 4.8 | 0.00 | 0.33 | 0.00 | 85 | 1009.4 |
| 20260505224543 | 0 | 0 | 0.0 | 6.4 | 0.00 | 0.33 | 0.00 | 85 | 1009.3 |
| 20260505224031 | 0 | 134 | 0.0 | 6.4 | 0.00 | 0.33 | 0.00 | 85 | 1009.4 |
| 20260505223531 | 0 | 240 | 1.6 | 6.4 | 0.00 | 0.33 | 0.00 | 85 | 1009.4 |
| 20260505223041 | 0 | 242 | 0.0 | 6.4 | 0.00 | 0.33 | 0.00 | 84 | 1009.4 |
| 20260505222530 | 0 | 0 | 1.6 | 6.4 | 0.00 | 0.33 | 0.00 | 85 | 1009.4 |
| 20260505222031 | 0 | 139 | 1.6 | 8.0 | 0.00 | 0.33 | 0.00 | 85 | 1009.5 |
| 20260505221548 | 0 | 0 | 0.0 | 8.0 | 0.00 | 0.33 | 0.00 | 85 | 1009.5 |
| 20260505221030 | 0 | 0 | 1.6 | 6.4 | 0.00 | 0.33 | 0.00 | 85 | 1009.4 |
| 20260505220531 | 0 | 167 | 0.0 | 6.4 | 0.00 | 0.33 | 0.00 | 85 | 1009.5 |